Location: Praha
(50.0830°N, 14.4670°E)
Time: 22:18:06
(UTC+01:00)

ISS - Pass Details

Date: 09 November 2019
Orbit: 412 x 421 km, 51.6° (Epoch: 15 November)

Event Time Altitude Azimuth Distance (km) Brightness Sun altitude
Exits shadow 04:13:52 22° 102° (ESE) 987 -1.2 -27.5°
Drops below altitude 10° 04:15:10 10° 104° (ESE) 1,504 -0.1 -27.3°
Sets 04:17:16 0° 105° (ESE) 2,365 1.1 -26.9°
